Location: Campolattaro
(41.2833°N, 14.7333°E)
Time: 00:43:01
(UTC+00:00)

Cosmos 1151 Rocket - Pass Details

Date: 19 May 2025
Orbit: 586 x 606 km, 82.5° (Epoch: 22 June)

Event Time Altitude Azimuth Distance (km) Brightness Sun altitude
Exits shadow 22:19:35 33° 38° (NE) 997 4.4 -28.1°
Drops below altitude 10° 22:22:10 10° 18° (NNE) 1,918 6.3 -28.2°
Sets 22:24:25 0° 14° (NNE) 2,823 7.5 -28.3°
